STARLINK-35772, 66976

Orbit data source: Space-Track

STARLINK-35772, 66976 is a payload satellite owned by SpaceX/Seattle (US) in LEO that was launched on Mon, 08 Dec 2025 UTC via an FALCON 9 launch vehicle from the Air Force Eastern Test Range (AFETR). Payload-class satellites include a variety of spacecraft equipped with specific instruments for various scientific and technological missions. These include communications satellites like Starlink; space stations such as the ISS; scientific satellites like the Hubble; Earth observation satellites from companies like Planet Labs, Umbra, and HawkEye 360; GPS; miniature CubeSats for education and research; and military/defense satellites.

Loading next visibility...
Identifier
66976, 2025-288T
Orbit
LEO
Country
Flag of USUS
Related business
Manufacturer
SpaceX/Seattle
Mission
Operational Commercial Communications
Bus & Motor
STARLINK V2MO, Unknown motor
Mass
575 kg wet, ~530 kg dry
Launch date (UTC)
2025-12-08 (5 months ago)
Launch vehicle
FALCON 9
Launch site
Air Force Eastern Test Range (AFETR)
Object type
Payload
Rocket body
Debris
Shape & HBR
Box + 2 Pan, 17.7 m
Radar Cross Section
36.964 m²

Expand to show TLE details & history
Last TLE update: 13 hours ago

TLE from 13 hours ago
0 STARLINK-35772
1 66976U 25288T   26129.93017917  .00018205  00000-0  67004-3 0  9992
2 66976  43.0044  37.6201 0001352 254.1379 105.9323 15.27550981 24655
Epoch: 2026-05-09T22:19Z
TLE epoch observation values (Epoch: 2026-05-09T22:19:27.480Z)
Latitude
-0.00006°
Longitude
-164.98501°
Altitude
483.167 km
Speed
7.625 km/s
True Right ascension
02h 30m 28s
True Declination
0° 00' 00"
Sunlit
Object was in daylight at epoch
Visualization orbit readout
Latitude
Unknown
Longitude
Unknown
Altitude
Unknown
Speed
Unknown
Apparent Right ascension
Unknown
Apparent Declination
Unknown
Sunlit
N/A
Visualization observer readout
Local Sidereal Time
19:47:47
Azimuth
Unknown
Elevation
Unknown
Doppler factor
Unknown
Orbital elements
Apogee altitude
486.008 km
Perigee altitude
484.152 km
Semi-major axis
6,863.217 km
Eccentricity
0.00014
Inclination
43.0044°
RAAN
37.6201°
Arg. of periapsis
254.1379°
True anomaly
105.9472°
Mean anomaly
105.9323°
Eccentric anomaly
105.93975°
Mean motion
3.81726 °/min
Orbital period
94.31 mins
BSTAR
0.00067004
Loading maneuver chart data...
Computing Atmospheric mass density...
Loading historical data...
Loading historical data...
Loading historical data...
Loading historical data...
Loading historical data...
Loading historical data...
Loading historical data...

Documentation

Showing up to 5 results
|